Yankton, SD

7:31 PM CST on February 22, 2018 (GMT -0600)
Gurney Municipal

Weather History for KYKN - January, 2014

Change the Weather History Date:

Saturday, January 4, 2014

  Actual Average Record
Temperature  
Mean Temperature 21 °F -  
Max Temperature 41 °F 25 °F 57 °F (2012)
Min Temperature 1 °F 5 °F -19 °F (1969)
Degree Days  
Heating Degree Days 44    
Moisture  
Dew Point 8 °F    
Average Humidity 73    
Maximum Humidity 81    
Minimum Humidity 65    
Precipitation  
Precipitation 0.01 in - - ()
Sea Level Pressure  
Sea Level Pressure 30.04 in    
Wind  
Wind Speed 18 mph (NW)    
Max Wind Speed 33 mph    
Max Gust Speed 44 mph    
Visibility 10 miles    
Events      
Averages and records for this station are not official NWS values.
T = Trace of Precipitation, MM = Missing Value Source: NWS Daily Summary

Daily Weather History Graph

Daily Weather History Graph

Search for Another Location

Airport or City:

Trip Planner

Search our weather history database for the weather conditions in past years. The results will help you decide how hot, cold, wet, or windy it might be!

Date:

Astronomy

Jan. 04, 2014 Rise Set
Actual Time 8:00 AM CST 5:08 PM CST
Civil Twilight 7:28 AM CST 5:40 PM CST
Nautical Twilight 6:53 AM CST 6:16 PM CST
Astronomical Twilight 6:18 AM CST 6:50 PM CST
Moon 10:00 AM CST (1/4) 9:36 PM CST (1/4)
Length of Visible Light 10h 12m
Length of Day
9h 08m
Waxing Crescent, 15% of the Moon is Illuminated
Jan 4
Waxing Crescent
Jan 7
First Quarter
Jan 15
Full
Jan 23
Last Quarter
Jan 30
New

Hourly Weather History & Observations

Time (CST) Temp. Windchill Dew Point Humidity Pressure Visibility Wind Dir Wind Speed Gust Speed Precip Events Conditions
12:15 AM 39.2 °F 31.6 °F 33.8 °F 81% 29.55 in 10.0 mi West 12.7 mph - N/A   Mostly Cloudy
12:55 AM 39.2 °F 31.6 °F 33.8 °F 81% 29.57 in 10.0 mi West 12.7 mph - N/A   Scattered Clouds
1:15 AM 41.0 °F 33.5 °F 32.0 °F 70% 29.57 in 10.0 mi West 13.8 mph - N/A   Mostly Cloudy
1:35 AM 41.0 °F 32.5 °F 32.0 °F 70% 29.58 in 10.0 mi West 17.3 mph 21.9 mph N/A   Overcast
1:55 AM 39.2 °F 29.6 °F 30.2 °F 70% 29.60 in 10.0 mi WNW 19.6 mph 31.1 mph N/A   Overcast
2:15 AM 39.2 °F 29.6 °F 28.4 °F 65% 29.63 in 10.0 mi WNW 19.6 mph 29.9 mph N/A   Overcast
2:35 AM 37.4 °F 26.1 °F 30.2 °F 75% 29.65 in 10.0 mi West 24.2 mph 28.8 mph N/A   Overcast
2:55 AM 33.8 °F 20.8 °F 24.8 °F 70% 29.69 in 10.0 mi NW 26.5 mph 42.6 mph N/A   Overcast
3:15 AM 28.4 °F 13.5 °F 21.2 °F 74% 29.73 in 10.0 mi NW 26.5 mph 36.8 mph 0.01 in   Overcast
3:35 AM 26.6 °F 12.4 °F 21.2 °F 80% 29.77 in 10.0 mi NW 21.9 mph 33.4 mph 0.01 in   Overcast
3:55 AM 24.8 °F 9.0 °F 17.6 °F 74% 29.79 in 10.0 mi NW 25.3 mph 31.1 mph 0.01 in   Overcast
4:15 AM 21.2 °F 3.5 °F 12.2 °F 68% 29.83 in 10.0 mi NW 27.6 mph 36.8 mph N/A   Overcast
4:35 AM 19.4 °F 1.8 °F 12.2 °F 74% 29.85 in 10.0 mi NNW 25.3 mph 28.8 mph N/A   Overcast
4:55 AM 19.4 °F 3.6 °F 12.2 °F 74% 29.86 in 10.0 mi NW 19.6 mph 27.6 mph N/A   Overcast
5:15 AM - - - N/A% 29.87 in 10.0 mi NW 29.9 mph 38.0 mph N/A   Overcast
5:35 AM 17.6 °F -1.0 °F 10.4 °F 73% 29.90 in 10.0 mi NNW 26.5 mph 33.4 mph N/A   Overcast
5:55 AM 15.8 °F -2.3 °F 8.6 °F 73% 29.91 in 10.0 mi NNW 23.0 mph 35.7 mph N/A   Overcast
6:15 AM - - - N/A% 29.91 in 10.0 mi NNW 32.2 mph 38.0 mph N/A   Overcast
6:35 AM 15.8 °F -3.4 °F 10.4 °F 79% 29.92 in 10.0 mi NNW 26.5 mph 32.2 mph N/A   Overcast
6:55 AM - - - N/A% 29.91 in 10.0 mi NNW 33.4 mph 43.7 mph N/A   Scattered Clouds
7:15 AM 14.0 °F -6.2 °F 6.8 °F 73% 29.92 in 10.0 mi NNW 27.6 mph 40.3 mph N/A   Clear
7:35 AM 12.2 °F -6.7 °F 6.8 °F 79% 29.94 in 10.0 mi NNW 21.9 mph 32.2 mph N/A   Partly Cloudy
7:55 AM 12.2 °F -2.5 °F 6.8 °F 79% 29.98 in 10.0 mi NNW 12.7 mph 20.7 mph N/A   Mostly Cloudy
8:15 AM 14.0 °F -2.5 °F 6.8 °F 73% 29.98 in 10.0 mi NNW 17.3 mph 25.3 mph N/A   Overcast
8:35 AM 14.0 °F -0.2 °F 8.6 °F 79% 30.04 in 10.0 mi NNW 12.7 mph 21.9 mph N/A   Overcast
8:55 AM 14.0 °F -0.8 °F 6.8 °F 73% 30.01 in 10.0 mi NNW 13.8 mph - N/A   Overcast
9:15 AM 14.0 °F -1.4 °F 8.6 °F 79% 30.03 in 10.0 mi NNW 15.0 mph 18.4 mph N/A   Overcast
9:35 AM 14.0 °F -2.0 °F 8.6 °F 79% 30.07 in 10.0 mi NNW 16.1 mph 19.6 mph N/A   Overcast
9:55 AM 15.8 °F 0.3 °F 6.8 °F 68% 30.09 in 10.0 mi NNW 16.1 mph 23.0 mph N/A   Overcast
10:15 AM 15.8 °F 1.4 °F 6.8 °F 68% 30.07 in 10.0 mi NNW 13.8 mph 24.2 mph N/A   Scattered Clouds
10:35 AM 15.8 °F 0.3 °F 8.6 °F 73% 30.06 in 10.0 mi NNW 16.1 mph 20.7 mph N/A   Partly Cloudy
10:55 AM 15.8 °F 0.9 °F 8.6 °F 73% 30.06 in 10.0 mi NNW 15.0 mph - N/A   Partly Cloudy
11:15 AM 15.8 °F -0.2 °F 8.6 °F 73% 30.09 in 10.0 mi NNW 17.3 mph 20.7 mph N/A   Partly Cloudy
11:35 AM 15.8 °F 0.9 °F 8.6 °F 73% 30.10 in 10.0 mi NNW 15.0 mph 21.9 mph N/A   Scattered Clouds
11:55 AM 17.6 °F 2.2 °F 10.4 °F 73% 30.10 in 10.0 mi NNW 17.3 mph 20.7 mph N/A   Scattered Clouds
12:15 PM 17.6 °F 3.7 °F 10.4 °F 73% 30.08 in 10.0 mi NNW 13.8 mph 21.9 mph N/A   Scattered Clouds
12:35 PM 17.6 °F 3.2 °F 10.4 °F 73% 30.07 in 10.0 mi NNW 15.0 mph 24.2 mph N/A   Partly Cloudy
12:55 PM 17.6 °F 3.7 °F 10.4 °F 73% 30.06 in 10.0 mi NNW 13.8 mph - N/A   Mostly Cloudy
1:15 PM 17.6 °F 3.7 °F 10.4 °F 73% 30.06 in 10.0 mi NNW 13.8 mph - N/A   Overcast
1:35 PM 19.4 °F 3.6 °F 12.2 °F 74% 30.07 in 10.0 mi NNW 19.6 mph 25.3 mph N/A   Mostly Cloudy
1:55 PM 17.6 °F 1.7 °F 10.4 °F 73% 30.09 in 10.0 mi NW 18.4 mph 25.3 mph N/A   Mostly Cloudy
2:15 PM 17.6 °F 0.9 °F 8.6 °F 68% 30.09 in 10.0 mi NNW 20.7 mph 27.6 mph N/A   Overcast
2:35 PM 15.8 °F -1.1 °F 10.4 °F 79% 30.10 in 10.0 mi NW 19.6 mph - N/A   Mostly Cloudy
2:55 PM 17.6 °F 3.2 °F 10.4 °F 73% 30.11 in 10.0 mi NNW 15.0 mph - N/A   Mostly Cloudy
3:15 PM 15.8 °F 0.3 °F 8.6 °F 73% 30.11 in 10.0 mi NNW 16.1 mph - N/A   Mostly Cloudy
3:35 PM 15.8 °F -0.6 °F 8.6 °F 73% 30.13 in 10.0 mi NNW 18.4 mph - N/A   Partly Cloudy
3:55 PM 14.0 °F -2.0 °F 6.8 °F 73% 30.15 in 10.0 mi NNW 16.1 mph - N/A   Clear
4:15 PM 12.2 °F -4.8 °F 5.0 °F 73% 30.15 in 10.0 mi NNW 17.3 mph 20.7 mph N/A   Clear
4:35 PM 10.4 °F -5.4 °F 3.2 °F 73% 30.17 in 10.0 mi NNW 13.8 mph - N/A   Clear
4:55 PM 10.4 °F -5.4 °F 3.2 °F 73% 30.18 in 10.0 mi NNW 13.8 mph - N/A   Clear
5:15 PM 10.4 °F -6.0 °F 1.4 °F 67% 30.18 in 10.0 mi NNW 15.0 mph 21.9 mph N/A   Clear
5:35 PM 8.6 °F -8.3 °F 3.2 °F 79% 30.20 in 10.0 mi NNW 15.0 mph - N/A   Clear
5:55 PM 8.6 °F -7.0 °F 3.2 °F 79% 30.21 in 10.0 mi NNW 12.7 mph - N/A   Clear
6:15 PM 8.6 °F -8.3 °F 1.4 °F 73% 30.21 in 10.0 mi NNW 15.0 mph 20.7 mph N/A   Clear
6:35 PM 6.8 °F -11.8 °F -0.4 °F 72% 30.23 in 10.0 mi NW 17.3 mph 21.9 mph N/A   Clear
6:55 PM 6.8 °F -10.7 °F -0.4 °F 72% 30.24 in 10.0 mi NW 15.0 mph 18.4 mph N/A   Clear
7:15 PM 6.8 °F -10.7 °F -0.4 °F 72% 30.24 in 10.0 mi NNW 15.0 mph 20.7 mph N/A   Clear
7:35 PM 6.8 °F -10.7 °F -0.4 °F 72% 30.25 in 10.0 mi NW 15.0 mph 20.7 mph N/A   Partly Cloudy
7:55 PM 6.8 °F -10.0 °F -0.4 °F 72% 30.25 in 10.0 mi NW 13.8 mph - N/A   Clear
8:15 PM 6.8 °F -11.8 °F -0.4 °F 72% 30.26 in 10.0 mi NNW 17.3 mph 20.7 mph N/A   Clear
8:35 PM 5.0 °F -11.6 °F -0.4 °F 78% 30.28 in 10.0 mi NNW 12.7 mph - N/A   Clear
8:55 PM 5.0 °F -14.7 °F -2.2 °F 72% 30.27 in 10.0 mi NNW 18.4 mph 24.2 mph N/A   Clear
9:15 PM 5.0 °F -13.0 °F -2.2 °F 72% 30.27 in 10.0 mi NNW 15.0 mph 23.0 mph N/A   Clear
9:35 PM 5.0 °F -13.6 °F -4.0 °F 66% 30.28 in 10.0 mi NNW 16.1 mph 28.8 mph N/A   Clear
9:55 PM 3.2 °F -16.5 °F -4.0 °F 72% 30.28 in 10.0 mi NNW 17.3 mph 23.0 mph N/A   Clear
10:15 PM 3.2 °F -15.9 °F -5.8 °F 66% 30.29 in 10.0 mi NNW 16.1 mph 19.6 mph N/A   Clear
10:35 PM 3.2 °F -15.9 °F -5.8 °F 66% 30.29 in 10.0 mi NNW 16.1 mph - N/A   Clear
10:55 PM 1.4 °F -18.2 °F -5.8 °F 72% 30.30 in 10.0 mi NNW 16.1 mph - N/A   Clear
11:15 PM 1.4 °F -16.9 °F -5.8 °F 72% 30.31 in 10.0 mi NNW 13.8 mph - N/A   Clear
11:35 PM 1.4 °F -17.6 °F -5.8 °F 72% 30.31 in 10.0 mi NNW 15.0 mph 20.7 mph N/A   Clear
11:55 PM 1.4 °F -17.6 °F -5.8 °F 72% 30.31 in 10.0 mi NNW 15.0 mph - N/A   Clear